Change the Weather History Date:

Thursday, August 15, 2013

  Actual Average (KGVL) Record (KGVL)
Temperature  
Mean Temperature 70 °F 78 °F  
Max Temperature 73 °F 87 °F 100 °F (2007)
Min Temperature 66 °F 69 °F 57 °F (1967)
Cooling Degree Days 4 13  
Month to date cooling degree days 207  
Year to date cooling degree days 1129  
Since 1 June cooling degree days 954  
Growing Degree Days 20 (Base 50)    
Moisture  
Dew Point 56 °F    
Average Humidity 62    
Maximum Humidity 83    
Minimum Humidity 46    
Precipitation  
Precipitation 0.00 in 0.13 in 2.85 in (1993)
Month to date precipitation 2.40  
Year to date precipitation 34.22  
Sea Level Pressure  
Sea Level Pressure 30.09 in    
Wind  
Wind Speed 6 mph (ENE)    
Max Wind Speed 15 mph    
Max Gust Speed 23 mph    
Visibility 10 miles    
Events      
T = Trace of Precipitation, MM = Missing Value Source: NWS Daily Summary

Daily Weather History Graph

Daily Weather History Graph

Search for Another Location

Airport or City:

Trip Planner

Search our weather history database for the weather conditions in past years. The results will help you decide how hot, cold, wet, or windy it might be!

Date:

Astronomy

Aug. 15, 2013 Rise Set
Actual Time 6:58 AM EDT 8:24 PM EDT
Civil Twilight 6:32 AM EDT 8:51 PM EDT
Nautical Twilight 6:00 AM EDT 9:22 PM EDT
Astronomical Twilight 5:27 AM EDT 9:55 PM EDT
Moon 3:36 PM EDT (8/15) 1:11 AM EDT (8/15)
Length of Visible Light 14h 18m
Length of Day
13h 25m
Waxing Gibbous, 64% of the Moon is Illuminated
Aug 15
Waxing Gibbous
Aug 20
Full
Aug 28
Last Quarter
Sep 5
New
Sep 12
First Quarter

Hourly Weather History & Observations

Time (EDT) Temp. Dew Point Humidity Pressure Visibility Wind Dir Wind Speed Gust Speed Precip Events Conditions
12:15 AM 69.8 °F 60.8 °F 73% 30.06 in 10.0 mi Calm Calm - N/A   Scattered Clouds
12:35 AM 69.8 °F 60.8 °F 73% 30.06 in 10.0 mi Calm Calm - N/A   Scattered Clouds
12:55 AM 69.8 °F 62.6 °F 78% 30.07 in 10.0 mi ENE 3.5 mph - N/A   Mostly Cloudy
1:15 AM 69.8 °F 62.6 °F 78% 30.06 in 10.0 mi ENE 4.6 mph - N/A   Overcast
1:35 AM 69.8 °F 62.6 °F 78% 30.06 in 10.0 mi ENE 4.6 mph - N/A   Mostly Cloudy
1:55 AM 69.8 °F 62.6 °F 78% 30.06 in 7.0 mi ENE 5.8 mph - N/A   Scattered Clouds
2:15 AM 68.0 °F 62.6 °F 83% 30.06 in 7.0 mi East 3.5 mph - N/A   Clear
2:35 AM 68.0 °F 62.6 °F 83% 30.05 in 7.0 mi ENE 4.6 mph - N/A   Scattered Clouds
2:55 AM 68.0 °F 62.6 °F 83% 30.05 in 7.0 mi East 3.5 mph - N/A   Scattered Clouds
3:15 AM 68.0 °F 62.6 °F 83% 30.05 in 7.0 mi ENE 3.5 mph - N/A   Scattered Clouds
3:35 AM 68.0 °F 62.6 °F 83% 30.05 in 7.0 mi East 3.5 mph - N/A   Scattered Clouds
3:55 AM 68.0 °F 62.6 °F 83% 30.05 in 10.0 mi East 3.5 mph - N/A   Scattered Clouds
4:15 AM 68.0 °F 60.8 °F 78% 30.05 in 10.0 mi East 4.6 mph - N/A   Mostly Cloudy
4:35 AM 68.0 °F 60.8 °F 78% 30.05 in 10.0 mi ENE 5.8 mph - N/A   Overcast
4:55 AM 68.0 °F 60.8 °F 78% 30.05 in 10.0 mi ENE 6.9 mph - N/A   Overcast
5:15 AM 68.0 °F 59.0 °F 73% 30.05 in 10.0 mi East 6.9 mph - N/A   Overcast
5:35 AM 68.0 °F 59.0 °F 73% 30.05 in 10.0 mi East 4.6 mph - N/A   Overcast
5:55 AM 68.0 °F 59.0 °F 73% 30.05 in 10.0 mi ENE 4.6 mph - N/A   Mostly Cloudy
6:15 AM 68.0 °F 59.0 °F 73% 30.05 in 10.0 mi ENE 6.9 mph - N/A   Mostly Cloudy
6:35 AM 68.0 °F 57.2 °F 68% 30.06 in 10.0 mi ENE 6.9 mph - N/A   Overcast
6:55 AM 68.0 °F 57.2 °F 68% 30.07 in 10.0 mi ENE 9.2 mph - N/A   Overcast
7:15 AM 68.0 °F 57.2 °F 68% 30.07 in 10.0 mi ENE 8.1 mph - N/A   Mostly Cloudy
7:35 AM 68.0 °F 57.2 °F 68% 30.08 in 10.0 mi ENE 9.2 mph 16.1 mph N/A   Overcast
7:55 AM 68.0 °F 59.0 °F 73% 30.08 in 10.0 mi ENE 9.2 mph 16.1 mph N/A   Mostly Cloudy
8:15 AM 68.0 °F 59.0 °F 73% 30.09 in 10.0 mi ENE 9.2 mph 16.1 mph N/A   Scattered Clouds
8:35 AM 68.0 °F 59.0 °F 73% 30.09 in 10.0 mi ENE 9.2 mph - N/A   Mostly Cloudy
8:55 AM 68.0 °F 59.0 °F 73% 30.09 in 10.0 mi ENE 8.1 mph 17.3 mph N/A   Overcast
9:15 AM 69.8 °F 57.2 °F 64% 30.09 in 10.0 mi ENE 9.2 mph 18.4 mph N/A   Scattered Clouds
9:35 AM 69.8 °F 57.2 °F 64% 30.09 in 10.0 mi East 9.2 mph 23.0 mph N/A   Clear
9:55 AM 69.8 °F 55.4 °F 60% 30.10 in 10.0 mi ENE 15.0 mph 23.0 mph N/A   Mostly Cloudy
10:15 AM 69.8 °F 51.8 °F 53% 30.11 in 10.0 mi East 13.8 mph 23.0 mph N/A   Mostly Cloudy
10:35 AM 71.6 °F 51.8 °F 50% 30.11 in 10.0 mi ENE 10.4 mph 21.9 mph N/A   Mostly Cloudy
10:55 AM 69.8 °F 50.0 °F 49% 30.11 in 10.0 mi East 11.5 mph 19.6 mph N/A   Mostly Cloudy
11:15 AM 71.6 °F 50.0 °F 46% 30.12 in 10.0 mi East 13.8 mph 20.7 mph N/A   Overcast
11:35 AM 71.6 °F 50.0 °F 46% 30.12 in 10.0 mi East 13.8 mph 20.7 mph N/A   Overcast
11:55 AM 71.6 °F 50.0 °F 46% 30.13 in 10.0 mi East 11.5 mph 20.7 mph N/A   Overcast
12:15 PM 71.6 °F 50.0 °F 46% 30.12 in 10.0 mi East 11.5 mph 21.9 mph N/A   Mostly Cloudy
12:35 PM 71.6 °F 50.0 °F 46% 30.12 in 10.0 mi East 13.8 mph 23.0 mph N/A   Overcast
12:55 PM 71.6 °F 50.0 °F 46% 30.12 in 10.0 mi East 15.0 mph 23.0 mph N/A   Overcast
1:15 PM 71.6 °F 51.8 °F 50% 30.11 in 10.0 mi East 6.9 mph 18.4 mph N/A   Overcast
1:35 PM 71.6 °F 50.0 °F 46% 30.11 in 10.0 mi East 12.7 mph 20.7 mph N/A   Overcast
1:55 PM 71.6 °F 50.0 °F 46% 30.11 in 10.0 mi East 11.5 mph 19.6 mph N/A   Overcast
2:15 PM 71.6 °F 50.0 °F 46% 30.09 in 10.0 mi East 10.4 mph - N/A   Overcast
2:35 PM 71.6 °F 51.8 °F 50% 30.09 in 10.0 mi East 11.5 mph 18.4 mph N/A   Overcast
2:55 PM 71.6 °F 51.8 °F 50% 30.08 in 10.0 mi ENE 9.2 mph 16.1 mph N/A   Overcast
3:15 PM 71.6 °F 51.8 °F 50% 30.08 in 10.0 mi East 8.1 mph - N/A   Overcast
3:35 PM 71.6 °F 50.0 °F 46% 30.08 in 10.0 mi East 8.1 mph 18.4 mph N/A   Overcast
3:55 PM 71.6 °F 51.8 °F 50% 30.08 in 10.0 mi East 9.2 mph - N/A   Overcast
4:15 PM 73.4 °F 51.8 °F 47% 30.08 in 10.0 mi East 6.9 mph 17.3 mph N/A   Mostly Cloudy
4:35 PM 73.4 °F 51.8 °F 47% 30.08 in 10.0 mi East 5.8 mph - N/A   Mostly Cloudy
4:55 PM 73.4 °F 51.8 °F 47% 30.09 in 10.0 mi ENE 6.9 mph - N/A   Overcast
5:15 PM 73.4 °F 51.8 °F 47% 30.09 in 10.0 mi ENE 8.1 mph 17.3 mph N/A   Mostly Cloudy
5:35 PM 73.4 °F 51.8 °F 47% 30.08 in 10.0 mi ENE 8.1 mph 17.3 mph N/A   Scattered Clouds
5:55 PM 71.6 °F 51.8 °F 50% 30.08 in 10.0 mi ENE 8.1 mph - N/A   Mostly Cloudy
6:15 PM 71.6 °F 53.6 °F 53% 30.08 in 10.0 mi ENE 6.9 mph - N/A   Overcast
6:35 PM 71.6 °F 51.8 °F 50% 30.08 in 10.0 mi East 8.1 mph 16.1 mph N/A   Overcast
6:55 PM 71.6 °F 51.8 °F 50% 30.08 in 10.0 mi East 9.2 mph - N/A   Mostly Cloudy
7:15 PM 71.6 °F 51.8 °F 50% 30.09 in 10.0 mi East 6.9 mph - N/A   Overcast
7:35 PM 69.8 °F 51.8 °F 53% 30.09 in 10.0 mi East 8.1 mph - N/A   Overcast
7:55 PM 69.8 °F 53.6 °F 56% 30.09 in 10.0 mi ENE 5.8 mph - N/A   Overcast
8:15 PM 68.0 °F 53.6 °F 60% 30.10 in 10.0 mi East 3.5 mph - N/A   Mostly Cloudy
8:35 PM 68.0 °F 53.6 °F 60% 30.11 in 10.0 mi ENE 3.5 mph - N/A   Mostly Cloudy
8:55 PM 68.0 °F 53.6 °F 60% 30.11 in 10.0 mi ENE 3.5 mph - N/A   Overcast
9:15 PM 68.0 °F 53.6 °F 60% 30.11 in 10.0 mi ENE 4.6 mph - N/A   Overcast
9:35 PM 68.0 °F 55.4 °F 64% 30.11 in 10.0 mi East 5.8 mph - N/A   Overcast
9:55 PM 68.0 °F 55.4 °F 64% 30.11 in 10.0 mi ENE 4.6 mph - N/A   Overcast
10:15 PM 68.0 °F 55.4 °F 64% 30.11 in 10.0 mi East 5.8 mph - N/A   Overcast
10:35 PM 66.2 °F 55.4 °F 68% 30.12 in 10.0 mi ENE 4.6 mph - N/A   Overcast
10:55 PM 66.2 °F 55.4 °F 68% 30.12 in 10.0 mi ENE 4.6 mph - N/A   Overcast
11:15 PM 66.2 °F 55.4 °F 68% 30.11 in 10.0 mi East 4.6 mph - N/A   Overcast
11:35 PM 66.2 °F 55.4 °F 68% 30.12 in 10.0 mi East 5.8 mph - N/A   Overcast
11:55 PM 66.2 °F 55.4 °F 68% 30.12 in 10.0 mi ENE 4.6 mph - N/A   Overcast